Time,TemperatureF,DewpointF,PressureIn,WindDirection,WindDirectionDegrees,WindSpeedMPH,WindSpeedGustMPH,Humidity,HourlyPrecipIn,Conditions,Clouds,dailyrainin,SoftwareType,DateUTC
2013-05-11 00:00:00,47.4,46.0,29.94,North,4,0.0,0.0,95,0.00,,,0.01,Custom v0.1,2013-05-11 05:00:00,
2013-05-11 00:05:00,47.1,45.7,29.94,North,4,0.0,0.0,95,0.00,,,0.00,Custom v0.1,2013-05-11 05:05:00,
2013-05-11 00:10:00,46.8,45.4,29.94,North,4,0.0,0.0,95,0.00,,,0.00,Custom v0.1,2013-05-11 05:10:00,
2013-05-11 00:15:00,46.8,45.7,29.94,North,4,0.0,0.0,96,0.00,,,0.00,Custom v0.1,2013-05-11 05:15:00,
2013-05-11 00:20:00,46.7,45.6,29.94,North,4,0.0,0.0,96,0.00,,,0.00,Custom v0.1,2013-05-11 05:20:00,
2013-05-11 00:25:00,46.5,45.4,29.94,North,4,0.0,0.0,96,0.00,,,0.00,Custom v0.1,2013-05-11 05:25:00,
2013-05-11 00:30:00,46.4,45.3,29.94,North,4,0.0,0.0,96,0.00,,,0.00,Custom v0.1,2013-05-11 05:30:00,
2013-05-11 00:40:00,46.1,45.0,29.95,North,4,0.0,0.0,96,0.00,,,0.00,Custom v0.1,2013-05-11 05:40:00,
2013-05-11 00:45:00,46.1,45.0,29.95,North,4,0.0,0.0,96,0.00,,,0.00,Custom v0.1,2013-05-11 05:45:00,
2013-05-11 00:50:00,46.1,45.0,29.95,North,4,0.0,0.0,96,0.00,,,0.00,Custom v0.1,2013-05-11 05:50:00,
2013-05-11 00:55:00,46.2,45.1,29.95,North,4,0.0,0.0,96,0.00,,,0.00,Custom v0.1,2013-05-11 05:55:00,
2013-05-11 01:00:00,46.1,45.0,29.95,North,4,0.0,0.0,96,0.00,,,0.00,Custom v0.1,2013-05-11 06:00:00,
2013-05-11 01:05:00,46.1,45.0,29.95,North,4,0.0,0.0,96,0.00,,,0.00,Custom v0.1,2013-05-11 06:05:00,
2013-05-11 01:10:00,45.8,44.7,29.95,North,4,0.0,0.0,96,0.00,,,0.00,Custom v0.1,2013-05-11 06:10:00,
2013-05-11 01:15:00,45.5,44.4,29.95,North,4,0.0,0.0,96,0.00,,,0.00,Custom v0.1,2013-05-11 06:15:00,
2013-05-11 01:20:00,45.4,44.3,29.96,North,4,0.0,0.0,96,0.00,,,0.00,Custom v0.1,2013-05-11 06:20:00,
2013-05-11 01:25:00,45.1,44.0,29.96,North,4,0.0,0.0,96,0.00,,,0.00,Custom v0.1,2013-05-11 06:25:00,
2013-05-11 01:30:00,45.1,44.0,29.96,North,4,0.0,0.0,96,0.00,,,0.00,Custom v0.1,2013-05-11 06:30:00,
2013-05-11 01:35:00,45.1,44.0,29.96,North,4,0.0,0.0,96,0.00,,,0.00,Custom v0.1,2013-05-11 06:35:00,
2013-05-11 01:40:00,45.1,44.0,29.96,North,4,0.0,0.0,96,0.00,,,0.00,Custom v0.1,2013-05-11 06:40:00,
2013-05-11 01:45:00,45.1,44.0,29.96,North,4,0.0,0.0,96,0.00,,,0.00,Custom v0.1,2013-05-11 06:45:00,
2013-05-11 01:50:00,45.2,44.1,29.96,North,4,0.0,0.0,96,0.00,,,0.00,Custom v0.1,2013-05-11 06:50:00,
2013-05-11 01:55:00,45.2,44.1,29.96,North,4,0.0,0.0,96,0.00,,,0.00,Custom v0.1,2013-05-11 06:55:00,
2013-05-11 02:00:00,45.1,44.0,29.96,North,4,0.0,0.0,96,0.00,,,0.00,Custom v0.1,2013-05-11 07:00:00,
2013-05-11 02:05:00,44.8,43.7,29.96,North,4,0.0,0.0,96,0.00,,,0.00,Custom v0.1,2013-05-11 07:05:00,
2013-05-11 02:10:00,44.6,43.5,29.96,North,4,0.0,0.0,96,0.00,,,0.00,Custom v0.1,2013-05-11 07:10:00,
2013-05-11 02:15:00,44.5,43.4,29.96,North,4,0.0,0.0,96,0.00,,,0.00,Custom v0.1,2013-05-11 07:15:00,
2013-05-11 02:20:00,44.5,43.7,29.96,North,4,0.0,0.0,97,0.00,,,0.00,Custom v0.1,2013-05-11 07:20:00,
2013-05-11 02:25:00,44.5,43.7,29.96,North,4,0.0,0.0,97,0.00,,,0.00,Custom v0.1,2013-05-11 07:25:00,
2013-05-11 02:30:00,44.3,43.2,29.96,North,4,0.0,0.0,96,0.00,,,0.00,Custom v0.1,2013-05-11 07:30:00,
2013-05-11 02:35:00,44.2,43.1,29.95,North,4,0.0,0.0,96,0.00,,,0.00,Custom v0.1,2013-05-11 07:35:00,
2013-05-11 02:40:00,44.1,43.0,29.95,North,4,0.0,0.0,96,0.00,,,0.00,Custom v0.1,2013-05-11 07:40:00,
2013-05-11 02:45:00,43.9,42.8,29.95,North,4,0.0,0.0,96,0.00,,,0.00,Custom v0.1,2013-05-11 07:45:00,
2013-05-11 02:50:00,43.9,43.1,29.95,North,4,0.0,0.0,97,0.00,,,0.00,Custom v0.1,2013-05-11 07:50:00,
2013-05-11 02:55:00,43.8,43.0,29.95,North,4,0.0,0.0,97,0.00,,,0.00,Custom v0.1,2013-05-11 07:55:00,
2013-05-11 03:00:00,43.6,42.8,29.95,North,4,0.0,0.0,97,0.00,,,0.00,Custom v0.1,2013-05-11 08:00:00,
2013-05-11 03:05:00,43.6,42.8,29.95,North,4,0.0,0.0,97,0.00,,,0.00,Custom v0.1,2013-05-11 08:05:00,
2013-05-11 03:10:00,43.5,42.7,29.95,North,4,0.0,0.0,97,0.00,,,0.00,Custom v0.1,2013-05-11 08:10:00,
2013-05-11 03:15:00,43.3,42.5,29.95,North,4,0.0,0.0,97,0.00,,,0.00,Custom v0.1,2013-05-11 08:15:00,
2013-05-11 03:20:00,43.3,42.5,29.95,North,4,0.0,0.0,97,0.00,,,0.00,Custom v0.1,2013-05-11 08:20:00,
2013-05-11 03:25:00,43.3,42.5,29.95,North,4,0.0,0.0,97,0.00,,,0.00,Custom v0.1,2013-05-11 08:25:00,
2013-05-11 03:30:00,43.2,42.4,29.95,North,4,0.0,0.0,97,0.00,,,0.00,Custom v0.1,2013-05-11 08:30:00,
2013-05-11 03:35:00,43.1,42.3,29.95,North,4,0.0,0.0,97,0.00,,,0.00,Custom v0.1,2013-05-11 08:35:00,
2013-05-11 03:40:00,42.9,42.1,29.95,North,4,0.0,0.0,97,0.00,,,0.00,Custom v0.1,2013-05-11 08:40:00,
2013-05-11 03:45:00,42.9,42.1,29.95,North,4,0.0,0.0,97,0.00,,,0.00,Custom v0.1,2013-05-11 08:45:00,
2013-05-11 03:50:00,42.9,42.1,29.95,North,4,0.0,0.0,97,0.00,,,0.00,Custom v0.1,2013-05-11 08:50:00,
2013-05-11 03:55:00,42.9,42.1,29.95,North,4,0.0,0.0,97,0.00,,,0.00,Custom v0.1,2013-05-11 08:55:00,
2013-05-11 04:00:00,42.8,42.0,29.95,North,4,0.0,0.0,97,0.00,,,0.00,Custom v0.1,2013-05-11 09:00:00,
2013-05-11 04:05:00,42.6,41.8,29.95,North,4,0.0,0.0,97,0.00,,,0.00,Custom v0.1,2013-05-11 09:05:00,
2013-05-11 04:10:00,42.6,41.8,29.95,North,4,0.0,0.0,97,0.00,,,0.00,Custom v0.1,2013-05-11 09:10:00,
2013-05-11 04:15:00,42.6,41.8,29.95,North,4,0.0,0.0,97,0.00,,,0.00,Custom v0.1,2013-05-11 09:15:00,
2013-05-11 04:20:00,42.8,42.0,29.94,North,4,0.0,0.0,97,0.00,,,0.00,Custom v0.1,2013-05-11 09:20:00,
2013-05-11 04:30:00,42.5,41.7,29.94,North,4,0.0,0.0,97,0.00,,,0.00,Custom v0.1,2013-05-11 09:30:00,
2013-05-11 04:35:00,42.3,41.5,29.94,North,4,0.0,0.0,97,0.00,,,0.00,Custom v0.1,2013-05-11 09:35:00,
2013-05-11 04:40:00,42.3,41.5,29.94,North,4,0.0,0.0,97,0.00,,,0.00,Custom v0.1,2013-05-11 09:40:00,
2013-05-11 04:50:00,42.2,41.4,29.94,North,4,0.0,0.0,97,0.00,,,0.00,Custom v0.1,2013-05-11 09:50:00,
2013-05-11 04:55:00,42.1,41.3,29.94,North,4,0.0,0.0,97,0.00,,,0.00,Custom v0.1,2013-05-11 09:55:00,
2013-05-11 05:00:00,41.9,41.1,29.94,North,4,0.0,0.0,97,0.00,,,0.00,Custom v0.1,2013-05-11 10:00:00,
2013-05-11 05:05:00,41.8,41.0,29.94,North,4,0.0,0.0,97,0.00,,,0.00,Custom v0.1,2013-05-11 10:05:00,
2013-05-11 05:10:00,41.6,40.8,29.94,North,4,0.0,0.0,97,0.00,,,0.00,Custom v0.1,2013-05-11 10:10:00,
2013-05-11 05:15:00,41.6,40.8,29.94,North,4,0.0,0.0,97,0.00,,,0.00,Custom v0.1,2013-05-11 10:15:00,
2013-05-11 05:20:00,41.6,40.8,29.93,North,4,0.0,0.0,97,0.00,,,0.00,Custom v0.1,2013-05-11 10:20:00,
2013-05-11 05:25:00,41.6,40.8,29.93,North,4,0.0,0.0,97,0.00,,,0.00,Custom v0.1,2013-05-11 10:25:00,
2013-05-11 05:30:00,41.8,41.0,29.93,North,4,0.0,0.0,97,0.00,,,0.00,Custom v0.1,2013-05-11 10:30:00,
2013-05-11 05:35:00,42.1,41.6,29.94,North,4,0.0,0.0,98,0.00,,,0.00,Custom v0.1,2013-05-11 10:35:00,
2013-05-11 05:40:00,42.2,41.7,29.94,North,4,0.0,0.0,98,0.00,,,0.00,Custom v0.1,2013-05-11 10:40:00,
2013-05-11 05:45:00,42.1,41.3,29.94,North,4,0.0,0.0,97,0.00,,,0.00,Custom v0.1,2013-05-11 10:45:00,
2013-05-11 05:50:00,41.9,41.1,29.94,North,4,0.0,0.0,97,0.00,,,0.00,Custom v0.1,2013-05-11 10:50:00,
2013-05-11 06:00:00,41.6,40.8,29.94,North,4,0.0,0.0,97,0.00,,,0.00,Custom v0.1,2013-05-11 11:00:00,
2013-05-11 06:10:00,41.5,40.7,29.95,North,4,0.0,0.0,97,0.00,,,0.00,Custom v0.1,2013-05-11 11:10:00,
2013-05-11 06:15:00,41.5,40.7,29.95,North,4,0.0,0.0,97,0.00,,,0.00,Custom v0.1,2013-05-11 11:15:00,
2013-05-11 06:25:00,41.8,41.3,29.95,North,4,0.0,0.0,98,0.00,,,0.00,Custom v0.1,2013-05-11 11:25:00,
2013-05-11 06:35:00,41.8,41.3,29.95,North,4,0.0,0.0,98,0.00,,,0.00,Custom v0.1,2013-05-11 11:35:00,
2013-05-11 06:40:00,42.1,41.6,29.95,North,4,0.0,0.0,98,0.00,,,0.00,Custom v0.1,2013-05-11 11:40:00,
2013-05-11 06:50:00,42.5,42.0,29.95,North,4,0.0,0.0,98,0.00,,,0.00,Custom v0.1,2013-05-11 11:50:00,
2013-05-11 06:55:00,43.1,42.6,29.95,NNE,32,0.0,0.0,98,0.00,,,0.00,Custom v0.1,2013-05-11 11:55:00,
2013-05-11 07:00:00,44.1,43.5,29.95,NNE,32,0.0,0.0,98,0.00,,,0.00,Custom v0.1,2013-05-11 12:00:00,
2013-05-11 07:05:00,45.1,44.8,29.95,NNE,32,0.0,0.0,99,0.00,,,0.00,Custom v0.1,2013-05-11 12:05:00,
2013-05-11 07:10:00,45.8,45.5,29.95,NNE,32,0.0,0.0,99,0.00,,,0.00,Custom v0.1,2013-05-11 12:10:00,
2013-05-11 07:15:00,46.4,46.1,29.95,NNE,32,0.0,0.0,99,0.00,,,0.00,Custom v0.1,2013-05-11 12:15:00,
2013-05-11 07:20:00,47.0,46.7,29.95,NNE,32,0.0,0.0,99,0.00,,,0.00,Custom v0.1,2013-05-11 12:20:00,
2013-05-11 07:25:00,47.6,47.3,29.95,NNE,32,0.0,0.0,99,0.00,,,0.00,Custom v0.1,2013-05-11 12:25:00,
2013-05-11 07:30:00,48.2,47.9,29.95,NNE,32,0.0,0.0,99,0.00,,,0.00,Custom v0.1,2013-05-11 12:30:00,
2013-05-11 07:35:00,48.8,48.5,29.95,NNE,32,0.0,0.0,99,0.00,,,0.00,Custom v0.1,2013-05-11 12:35:00,
2013-05-11 07:40:00,49.4,49.1,29.95,NNE,32,0.0,0.0,99,0.00,,,0.00,Custom v0.1,2013-05-11 12:40:00,
2013-05-11 07:45:00,49.8,49.2,29.95,NNE,32,0.0,0.0,98,0.00,,,0.00,Custom v0.1,2013-05-11 12:45:00,
2013-05-11 07:50:00,50.4,49.8,29.95,NNE,32,0.0,0.0,98,0.00,,,0.00,Custom v0.1,2013-05-11 12:50:00,
2013-05-11 07:55:00,51.1,50.5,29.95,North,4,0.0,0.0,98,0.00,,,0.00,Custom v0.1,2013-05-11 12:55:00,
2013-05-11 08:00:00,51.7,51.1,29.95,West,261,0.0,0.0,98,0.00,,,0.00,Custom v0.1,2013-05-11 13:00:00,
2013-05-11 08:05:00,52.3,51.7,29.95,West,261,0.0,0.0,98,0.00,,,0.00,Custom v0.1,2013-05-11 13:05:00,
2013-05-11 08:10:00,52.8,52.2,29.95,West,262,0.0,0.0,98,0.00,,,0.00,Custom v0.1,2013-05-11 13:10:00,
2013-05-11 08:15:00,53.5,52.6,29.95,WNW,285,0.0,0.0,97,0.00,,,0.00,Custom v0.1,2013-05-11 13:15:00,
2013-05-11 08:20:00,54.4,53.2,29.96,WNW,282,0.0,0.0,96,0.00,,,0.00,Custom v0.1,2013-05-11 13:20:00,
2013-05-11 08:25:00,55.0,53.6,29.96,WNW,299,0.0,0.0,95,0.00,,,0.00,Custom v0.1,2013-05-11 13:25:00,
2013-05-11 08:30:00,56.0,53.7,29.96,WNW,293,0.0,0.0,92,0.00,,,0.00,Custom v0.1,2013-05-11 13:30:00,
2013-05-11 08:35:00,56.9,53.4,29.96,NNW,329,8.0,8.0,88,0.00,,,0.00,Custom v0.1,2013-05-11 13:35:00,
2013-05-11 08:40:00,57.8,51.7,29.96,WNW,299,0.0,0.0,80,0.01,,,0.01,Custom v0.1,2013-05-11 13:40:00,
2013-05-11 08:45:00,58.7,50.9,29.96,NNW,337,6.0,6.0,75,0.01,,,0.01,Custom v0.1,2013-05-11 13:45:00,
2013-05-11 08:50:00,59.3,50.8,29.97,NW,317,8.0,8.0,73,0.01,,,0.01,Custom v0.1,2013-05-11 13:50:00,
2013-05-11 08:55:00,59.5,50.6,29.97,WSW,258,2.0,2.0,72,0.01,,,0.01,Custom v0.1,2013-05-11 13:55:00,
2013-05-11 09:00:00,59.5,50.2,29.97,NW,315,0.0,2.0,71,0.01,,,0.01,Custom v0.1,2013-05-11 14:00:00,
2013-05-11 09:05:00,59.6,50.3,29.98,NNW,343,0.0,8.0,71,0.01,,,0.01,Custom v0.1,2013-05-11 14:05:00,
2013-05-11 09:10:00,59.9,50.2,29.98,North,8,5.0,8.0,70,0.01,,,0.01,Custom v0.1,2013-05-11 14:10:00,
2013-05-11 09:15:00,60.1,48.8,29.98,North,0,11.0,11.0,66,0.01,,,0.01,Custom v0.1,2013-05-11 14:15:00,
2013-05-11 09:20:00,60.4,47.9,29.99,North,4,0.0,4.0,63,0.01,,,0.01,Custom v0.1,2013-05-11 14:20:00,
2013-05-11 09:25:00,60.7,45.0,29.99,NW,306,6.0,6.0,56,0.01,,,0.01,Custom v0.1,2013-05-11 14:25:00,
2013-05-11 09:30:00,60.7,43.5,29.99,North,354,11.0,11.0,53,0.01,,,0.01,Custom v0.1,2013-05-11 14:30:00,
2013-05-11 09:35:00,60.7,42.5,29.99,North,354,3.0,10.0,51,0.01,,,0.01,Custom v0.1,2013-05-11 14:35:00,
2013-05-11 09:40:00,61.0,40.6,29.99,WNW,302,2.0,10.0,47,0.00,,,0.01,Custom v0.1,2013-05-11 14:40:00,
2013-05-11 09:45:00,61.2,38.4,29.99,NNW,334,1.0,10.0,43,0.00,,,0.01,Custom v0.1,2013-05-11 14:45:00,
2013-05-11 09:50:00,61.3,39.1,30.00,NNW,336,0.0,0.0,44,0.00,,,0.01,Custom v0.1,2013-05-11 14:50:00,
2013-05-11 09:55:00,61.8,40.7,30.00,North,7,8.0,8.0,46,0.00,,,0.01,Custom v0.1,2013-05-11 14:55:00,
2013-05-11 10:00:00,61.8,41.3,30.00,WNW,295,8.0,8.0,47,0.00,,,0.01,Custom v0.1,2013-05-11 15:00:00,
2013-05-11 10:05:00,62.0,37.9,30.01,North,5,0.0,0.0,41,0.00,,,0.01,Custom v0.1,2013-05-11 15:05:00,
2013-05-11 10:10:00,62.0,38.5,30.01,NNE,15,0.0,0.0,42,0.00,,,0.01,Custom v0.1,2013-05-11 15:10:00,
2013-05-11 10:15:00,61.8,35.7,30.01,NW,315,8.0,8.0,38,0.00,,,0.01,Custom v0.1,2013-05-11 15:15:00,
2013-05-11 10:20:00,61.8,36.4,30.01,North,4,6.0,6.0,39,0.00,,,0.01,Custom v0.1,2013-05-11 15:20:00,
2013-05-11 10:25:00,62.1,34.6,30.01,NNW,343,7.0,7.0,36,0.00,,,0.01,Custom v0.1,2013-05-11 15:25:00,
2013-05-11 10:35:00,62.3,35.5,30.02,North,4,0.0,10.0,37,0.00,,,0.01,Custom v0.1,2013-05-11 15:35:00,
2013-05-11 10:40:00,62.6,33.6,30.02,North,4,6.0,6.0,34,0.00,,,0.01,Custom v0.1,2013-05-11 15:40:00,
2013-05-11 10:50:00,62.3,32.6,30.03,NNW,347,0.0,0.0,33,0.00,,,0.01,Custom v0.1,2013-05-11 15:50:00,
2013-05-11 10:55:00,62.3,32.6,30.03,NE,44,0.0,0.0,33,0.00,,,0.01,Custom v0.1,2013-05-11 15:55:00,
2013-05-11 11:00:00,62.4,34.2,30.03,North,4,11.0,11.0,35,0.00,,,0.01,Custom v0.1,2013-05-11 16:00:00,
2013-05-11 11:10:00,62.4,33.4,30.04,NE,44,0.0,3.0,34,0.00,,,0.01,Custom v0.1,2013-05-11 16:10:00,
2013-05-11 11:15:00,62.6,33.6,30.04,North,351,0.0,0.0,34,0.00,,,0.01,Custom v0.1,2013-05-11 16:15:00,
2013-05-11 11:20:00,62.6,32.1,30.04,NNE,12,10.0,10.0,32,0.00,,,0.01,Custom v0.1,2013-05-11 16:20:00,
2013-05-11 11:25:00,62.9,34.6,30.04,North,353,11.0,11.0,35,0.00,,,0.01,Custom v0.1,2013-05-11 16:25:00,
2013-05-11 11:30:00,62.6,33.6,30.04,NNE,27,6.0,6.0,34,0.00,,,0.01,Custom v0.1,2013-05-11 16:30:00,
2013-05-11 11:40:00,62.7,33.0,30.04,NW,320,12.0,12.0,33,0.00,,,0.01,Custom v0.1,2013-05-11 16:40:00,
2013-05-11 11:45:00,62.9,32.4,30.04,North,354,0.0,0.0,32,0.00,,,0.01,Custom v0.1,2013-05-11 16:45:00,
2013-05-11 11:50:00,63.4,31.2,30.05,NE,35,3.0,6.0,30,0.00,,,0.01,Custom v0.1,2013-05-11 16:50:00,
2013-05-11 11:55:00,63.1,31.8,30.05,NNE,24,6.0,6.0,31,0.00,,,0.01,Custom v0.1,2013-05-11 16:55:00,
2013-05-11 12:00:00,62.9,34.6,30.05,NE,53,0.0,0.0,35,0.00,,,0.01,Custom v0.1,2013-05-11 17:00:00,
2013-05-11 12:05:00,63.5,34.4,30.05,NW,309,7.0,12.0,34,0.00,,,0.01,Custom v0.1,2013-05-11 17:05:00,
2013-05-11 12:10:00,63.9,32.5,30.05,NNW,348,0.0,7.0,31,0.00,,,0.01,Custom v0.1,2013-05-11 17:10:00,
2013-05-11 12:15:00,63.5,33.7,30.05,North,4,1.0,3.0,33,0.00,,,0.01,Custom v0.1,2013-05-11 17:15:00,
2013-05-11 12:20:00,63.7,30.6,30.05,NNW,337,0.0,0.0,29,0.00,,,0.01,Custom v0.1,2013-05-11 17:20:00,
2013-05-11 12:25:00,63.4,32.8,30.05,NNW,336,7.0,7.0,32,0.00,,,0.01,Custom v0.1,2013-05-11 17:25:00,
2013-05-11 12:30:00,63.4,33.6,30.05,NNW,330,0.0,0.0,33,0.00,,,0.01,Custom v0.1,2013-05-11 17:30:00,
2013-05-11 12:35:00,63.5,34.4,30.05,NNW,348,10.0,10.0,34,0.00,,,0.01,Custom v0.1,2013-05-11 17:35:00,
2013-05-11 12:40:00,64.0,36.3,30.05,NNW,347,10.0,10.0,36,0.00,,,0.01,Custom v0.1,2013-05-11 17:40:00,
2013-05-11 12:45:00,63.9,32.5,30.05,North,4,6.0,6.0,31,0.00,,,0.01,Custom v0.1,2013-05-11 17:45:00,
2013-05-11 12:50:00,63.5,31.3,30.05,North,351,6.0,6.0,30,0.00,,,0.01,Custom v0.1,2013-05-11 17:50:00,
2013-05-11 12:55:00,63.7,32.3,30.05,North,358,1.0,1.0,31,0.00,,,0.01,Custom v0.1,2013-05-11 17:55:00,
2013-05-11 13:00:00,64.0,33.3,30.05,WNW,300,0.0,1.0,32,0.00,,,0.01,Custom v0.1,2013-05-11 18:00:00,
2013-05-11 13:05:00,64.3,32.8,30.06,North,4,5.0,7.0,31,0.00,,,0.01,Custom v0.1,2013-05-11 18:05:00,
2013-05-11 13:10:00,64.3,35.9,30.06,North,358,0.0,7.0,35,0.00,,,0.01,Custom v0.1,2013-05-11 18:10:00,
2013-05-11 13:15:00,64.0,31.7,30.06,NNW,347,12.0,12.0,30,0.00,,,0.01,Custom v0.1,2013-05-11 18:15:00,
2013-05-11 13:20:00,64.2,32.7,30.06,North,3,13.0,13.0,31,0.00,,,0.01,Custom v0.1,2013-05-11 18:20:00,
2013-05-11 13:25:00,64.2,31.9,30.06,NNW,329,6.0,8.0,30,0.00,,,0.01,Custom v0.1,2013-05-11 18:25:00,
2013-05-11 13:30:00,64.2,34.3,30.06,NW,322,7.0,8.0,33,0.00,,,0.01,Custom v0.1,2013-05-11 18:30:00,
2013-05-11 13:35:00,64.3,32.8,30.06,WNW,285,7.0,7.0,31,0.00,,,0.01,Custom v0.1,2013-05-11 18:35:00,
2013-05-11 13:40:00,64.5,33.8,30.06,WNW,299,6.0,6.0,32,0.00,,,0.01,Custom v0.1,2013-05-11 18:40:00,
2013-05-11 13:45:00,64.7,32.3,30.06,NW,324,7.0,7.0,30,0.00,,,0.01,Custom v0.1,2013-05-11 18:45:00,
2013-05-11 13:50:00,64.5,33.0,30.05,NW,324,11.0,11.0,31,0.00,,,0.01,Custom v0.1,2013-05-11 18:50:00,
2013-05-11 13:55:00,64.2,31.9,30.05,NW,326,0.0,1.0,30,0.00,,,0.01,Custom v0.1,2013-05-11 18:55:00,
2013-05-11 14:00:00,65.0,32.6,30.05,WNW,285,7.0,7.0,30,0.00,,,0.01,Custom v0.1,2013-05-11 19:00:00,
2013-05-11 14:05:00,65.2,31.1,30.06,North,3,0.0,0.0,28,0.00,,,0.01,Custom v0.1,2013-05-11 19:05:00,
2013-05-11 14:10:00,65.3,34.5,30.06,NW,323,11.0,11.0,32,0.00,,,0.01,Custom v0.1,2013-05-11 19:10:00,
2013-05-11 14:15:00,64.8,34.0,30.06,NNW,347,0.0,0.0,32,0.00,,,0.01,Custom v0.1,2013-05-11 19:15:00,
2013-05-11 14:20:00,65.0,31.8,30.06,West,272,0.0,0.0,29,0.00,,,0.01,Custom v0.1,2013-05-11 19:20:00,
2013-05-11 14:25:00,65.0,31.8,30.06,North,4,0.0,0.0,29,0.00,,,0.01,Custom v0.1,2013-05-11 19:25:00,
2013-05-11 14:30:00,65.8,34.1,30.06,North,4,6.0,6.0,31,0.00,,,0.01,Custom v0.1,2013-05-11 19:30:00,
2013-05-11 14:35:00,66.0,31.8,30.06,NW,317,5.0,5.0,28,0.00,,,0.01,Custom v0.1,2013-05-11 19:35:00,
2013-05-11 14:40:00,65.8,31.6,30.06,NNW,336,0.0,0.0,28,0.00,,,0.01,Custom v0.1,2013-05-11 19:40:00,
2013-05-11 14:45:00,66.1,32.7,30.06,NW,310,10.0,10.0,29,0.00,,,0.01,Custom v0.1,2013-05-11 19:45:00,
2013-05-11 14:50:00,65.5,30.5,30.07,North,4,0.0,8.0,27,0.00,,,0.01,Custom v0.1,2013-05-11 19:50:00,
2013-05-11 15:00:00,65.6,28.7,30.07,NNW,347,12.0,12.0,25,0.00,,,0.01,Custom v0.1,2013-05-11 20:00:00,
2013-05-11 15:05:00,65.2,30.2,30.07,NNW,333,0.0,4.0,27,0.00,,,0.01,Custom v0.1,2013-05-11 20:05:00,
2013-05-11 15:10:00,65.3,30.3,30.07,North,354,8.0,8.0,27,0.00,,,0.01,Custom v0.1,2013-05-11 20:10:00,
2013-05-11 15:15:00,65.5,30.5,30.07,NW,316,0.0,7.0,27,0.00,,,0.01,Custom v0.1,2013-05-11 20:15:00,
2013-05-11 15:20:00,65.2,31.1,30.07,NE,39,0.0,0.0,28,0.00,,,0.01,Custom v0.1,2013-05-11 20:20:00,
2013-05-11 15:25:00,65.2,30.2,30.07,North,350,0.0,1.0,27,0.00,,,0.01,Custom v0.1,2013-05-11 20:25:00,
2013-05-11 15:30:00,65.0,30.0,30.07,NNE,31,1.0,6.0,27,0.00,,,0.01,Custom v0.1,2013-05-11 20:30:00,
2013-05-11 15:35:00,65.3,31.2,30.06,NW,323,2.0,7.0,28,0.00,,,0.01,Custom v0.1,2013-05-11 20:35:00,
2013-05-11 15:40:00,65.2,31.1,30.06,NNW,333,2.0,8.0,28,0.00,,,0.01,Custom v0.1,2013-05-11 20:40:00,
2013-05-11 15:45:00,65.5,33.0,30.06,North,4,0.0,8.0,30,0.00,,,0.01,Custom v0.1,2013-05-11 20:45:00,
2013-05-11 15:50:00,65.8,33.3,30.06,NW,320,5.0,5.0,30,0.00,,,0.01,Custom v0.1,2013-05-11 20:50:00,
2013-05-11 15:55:00,65.6,31.4,30.06,NNW,329,8.0,8.0,28,0.00,,,0.01,Custom v0.1,2013-05-11 20:55:00,
2013-05-11 16:00:00,65.5,32.2,30.06,NNE,28,2.0,6.0,29,0.00,,,0.01,Custom v0.1,2013-05-11 21:00:00,
2013-05-11 16:05:00,65.2,32.8,30.06,NNW,340,0.0,0.0,30,0.00,,,0.01,Custom v0.1,2013-05-11 21:05:00,
2013-05-11 16:10:00,65.6,31.4,30.06,WNW,298,1.0,1.0,28,0.00,,,0.01,Custom v0.1,2013-05-11 21:10:00,
2013-05-11 16:15:00,65.6,32.3,30.06,WNW,292,0.0,0.0,29,0.00,,,0.01,Custom v0.1,2013-05-11 21:15:00,
2013-05-11 16:20:00,65.5,31.3,30.06,NNW,339,9.0,21.0,28,0.00,,,0.01,Custom v0.1,2013-05-11 21:20:00,
2013-05-11 16:25:00,65.3,31.2,30.06,NNW,329,6.0,8.0,28,0.00,,,0.01,Custom v0.1,2013-05-11 21:25:00,
2013-05-11 16:30:00,65.2,30.2,30.06,NNW,329,0.0,0.0,27,0.00,,,0.01,Custom v0.1,2013-05-11 21:30:00,
2013-05-11 16:35:00,65.3,32.0,30.06,NW,319,1.0,1.0,29,0.00,,,0.01,Custom v0.1,2013-05-11 21:35:00,
2013-05-11 16:40:00,65.3,28.4,30.06,NW,320,5.0,8.0,25,0.00,,,0.01,Custom v0.1,2013-05-11 21:40:00,
2013-05-11 16:45:00,64.8,28.0,30.06,WNW,291,3.0,3.0,25,0.00,,,0.01,Custom v0.1,2013-05-11 21:45:00,
2013-05-11 16:55:00,65.0,30.9,30.06,NNE,15,0.0,0.0,28,0.00,,,0.01,Custom v0.1,2013-05-11 21:55:00,
2013-05-11 17:00:00,64.8,28.9,30.06,North,4,6.0,6.0,26,0.00,,,0.01,Custom v0.1,2013-05-11 22:00:00,
2013-05-11 17:10:00,65.0,30.0,30.06,NNW,341,0.0,0.0,27,0.00,,,0.01,Custom v0.1,2013-05-11 22:10:00,
2013-05-11 17:15:00,65.0,30.0,30.06,NW,317,0.0,0.0,27,0.00,,,0.01,Custom v0.1,2013-05-11 22:15:00,
2013-05-11 17:20:00,64.7,28.9,30.06,NNW,334,0.0,0.0,26,0.00,,,0.01,Custom v0.1,2013-05-11 22:20:00,
2013-05-11 17:25:00,64.7,29.8,30.06,WNW,292,0.0,0.0,27,0.00,,,0.01,Custom v0.1,2013-05-11 22:25:00,
2013-05-11 17:30:00,65.0,29.1,30.06,NNW,329,10.0,10.0,26,0.00,,,0.01,Custom v0.1,2013-05-11 22:30:00,
2013-05-11 17:35:00,64.3,29.4,30.07,WNW,296,0.0,0.0,27,0.00,,,0.01,Custom v0.1,2013-05-11 22:35:00,
2013-05-11 17:40:00,64.5,29.6,30.07,NNW,329,0.0,0.0,27,0.00,,,0.01,Custom v0.1,2013-05-11 22:40:00,
2013-05-11 17:45:00,64.5,30.5,30.07,NW,322,0.0,0.0,28,0.00,,,0.01,Custom v0.1,2013-05-11 22:45:00,
2013-05-11 17:50:00,64.5,29.6,30.06,NNW,334,0.0,0.0,27,0.00,,,0.01,Custom v0.1,2013-05-11 22:50:00,
2013-05-11 17:55:00,64.5,28.7,30.06,NNW,348,5.0,5.0,26,0.00,,,0.01,Custom v0.1,2013-05-11 22:55:00,
2013-05-11 18:00:00,64.3,30.3,30.06,North,5,0.0,0.0,28,0.00,,,0.01,Custom v0.1,2013-05-11 23:00:00,
2013-05-11 18:05:00,64.3,28.5,30.06,NW,310,5.0,5.0,26,0.00,,,0.01,Custom v0.1,2013-05-11 23:05:00,
2013-05-11 18:10:00,64.2,29.3,30.06,North,5,6.0,6.0,27,0.00,,,0.01,Custom v0.1,2013-05-11 23:10:00,
2013-05-11 18:15:00,63.9,29.1,30.06,WNW,299,0.0,0.0,27,0.00,,,0.01,Custom v0.1,2013-05-11 23:15:00,
2013-05-11 18:20:00,63.5,29.6,30.06,North,4,0.0,0.0,28,0.00,,,0.01,Custom v0.1,2013-05-11 23:20:00,
2013-05-11 18:25:00,63.5,29.6,30.06,North,4,8.0,8.0,28,0.00,,,0.01,Custom v0.1,2013-05-11 23:25:00,
2013-05-11 18:30:00,63.5,29.6,30.06,NW,322,0.0,0.0,28,0.00,,,0.01,Custom v0.1,2013-05-11 23:30:00,
2013-05-11 18:35:00,63.4,28.7,30.06,North,1,0.0,0.0,27,0.00,,,0.01,Custom v0.1,2013-05-11 23:35:00,
2013-05-11 18:40:00,63.4,30.4,30.06,NW,320,0.0,0.0,29,0.00,,,0.01,Custom v0.1,2013-05-11 23:40:00,
2013-05-11 18:45:00,63.1,29.3,30.06,NW,317,11.0,11.0,28,0.00,,,0.01,Custom v0.1,2013-05-11 23:45:00,
2013-05-11 18:50:00,62.9,29.1,30.06,NNW,336,0.0,0.0,28,0.00,,,0.01,Custom v0.1,2013-05-11 23:50:00,
2013-05-11 18:55:00,62.7,29.8,30.06,North,3,2.0,2.0,29,0.00,,,0.01,Custom v0.1,2013-05-11 23:55:00,
2013-05-11 19:00:00,62.6,29.7,30.06,NNW,348,0.0,0.0,29,0.00,,,0.01,Custom v0.1,2013-05-12 00:00:00,
2013-05-11 19:05:00,62.4,30.3,30.06,NNW,341,0.0,0.0,30,0.00,,,0.01,Custom v0.1,2013-05-12 00:05:00,
2013-05-11 19:10:00,62.1,30.1,30.06,North,4,0.0,0.0,30,0.00,,,0.01,Custom v0.1,2013-05-12 00:10:00,
2013-05-11 19:15:00,62.0,29.2,30.06,NW,309,0.0,0.0,29,0.00,,,0.01,Custom v0.1,2013-05-12 00:15:00,
2013-05-11 19:25:00,61.5,30.4,30.06,NNW,334,11.0,11.0,31,0.00,,,0.01,Custom v0.1,2013-05-12 00:25:00,
2013-05-11 19:30:00,61.2,29.3,30.06,NNW,336,0.0,0.0,30,0.00,,,0.01,Custom v0.1,2013-05-12 00:30:00,
2013-05-11 19:35:00,60.9,29.0,30.07,North,354,0.0,0.0,30,0.00,,,0.01,Custom v0.1,2013-05-12 00:35:00,
2013-05-11 19:40:00,60.5,28.7,30.07,NNW,334,0.0,0.0,30,0.00,,,0.01,Custom v0.1,2013-05-12 00:40:00,
2013-05-11 19:45:00,60.2,28.4,30.07,NNW,334,0.0,0.0,30,0.00,,,0.01,Custom v0.1,2013-05-12 00:45:00,
2013-05-11 19:50:00,59.8,28.9,30.07,North,1,2.0,2.0,31,0.00,,,0.01,Custom v0.1,2013-05-12 00:50:00,
2013-05-11 19:55:00,59.3,29.2,30.07,North,4,0.0,0.0,32,0.00,,,0.01,Custom v0.1,2013-05-12 00:55:00,
2013-05-11 20:00:00,58.9,28.9,30.07,NNW,348,0.0,0.0,32,0.00,,,0.01,Custom v0.1,2013-05-12 01:00:00,
2013-05-11 20:05:00,58.4,29.9,30.07,NNW,344,0.0,0.0,34,0.00,,,0.01,Custom v0.1,2013-05-12 01:05:00,
2013-05-11 20:10:00,58.0,28.8,30.07,North,4,0.0,0.0,33,0.00,,,0.01,Custom v0.1,2013-05-12 01:10:00,
2013-05-11 20:15:00,57.5,29.1,30.07,North,4,0.0,0.0,34,0.00,,,0.01,Custom v0.1,2013-05-12 01:15:00,
2013-05-11 20:20:00,57.0,29.4,30.07,North,4,0.0,0.0,35,0.00,,,0.01,Custom v0.1,2013-05-12 01:20:00,
2013-05-11 20:25:00,56.6,29.7,30.07,North,4,0.0,0.0,36,0.00,,,0.01,Custom v0.1,2013-05-12 01:25:00,
2013-05-11 20:30:00,56.2,30.1,30.07,North,4,0.0,0.0,37,0.00,,,0.01,Custom v0.1,2013-05-12 01:30:00,
2013-05-11 20:35:00,55.7,30.3,30.07,North,4,0.0,0.0,38,0.00,,,0.01,Custom v0.1,2013-05-12 01:35:00,
2013-05-11 20:40:00,55.4,30.7,30.07,North,4,0.0,0.0,39,0.00,,,0.01,Custom v0.1,2013-05-12 01:40:00,
2013-05-11 20:45:00,55.0,30.9,30.07,North,4,0.0,0.0,40,0.00,,,0.01,Custom v0.1,2013-05-12 01:45:00,
2013-05-11 20:50:00,54.7,31.3,30.08,North,4,0.0,0.0,41,0.00,,,0.01,Custom v0.1,2013-05-12 01:50:00,
2013-05-11 20:55:00,54.2,31.5,30.08,North,4,0.0,0.0,42,0.00,,,0.01,Custom v0.1,2013-05-12 01:55:00,
2013-05-11 21:00:00,53.9,31.8,30.08,North,4,0.0,0.0,43,0.00,,,0.01,Custom v0.1,2013-05-12 02:00:00,
2013-05-11 21:05:00,53.3,31.8,30.08,North,4,0.0,0.0,44,0.00,,,0.01,Custom v0.1,2013-05-12 02:05:00,
2013-05-11 21:10:00,52.8,32.5,30.08,North,4,0.0,0.0,46,0.00,,,0.01,Custom v0.1,2013-05-12 02:10:00,
2013-05-11 21:15:00,52.2,31.9,30.08,North,4,0.0,0.0,46,0.00,,,0.01,Custom v0.1,2013-05-12 02:15:00,
2013-05-11 21:20:00,51.7,33.1,30.09,North,4,0.0,0.0,49,0.00,,,0.01,Custom v0.1,2013-05-12 02:20:00,
2013-05-11 21:25:00,51.3,33.8,30.09,North,4,0.0,0.0,51,0.00,,,0.01,Custom v0.1,2013-05-12 02:25:00,
2013-05-11 21:30:00,50.8,34.3,30.09,North,4,0.0,0.0,53,0.00,,,0.01,Custom v0.1,2013-05-12 02:30:00,
2013-05-11 21:35:00,50.2,34.7,30.10,North,4,0.0,0.0,55,0.00,,,0.01,Custom v0.1,2013-05-12 02:35:00,
2013-05-11 21:40:00,49.8,34.8,30.10,North,4,0.0,0.0,56,0.00,,,0.01,Custom v0.1,2013-05-12 02:40:00,
2013-05-11 21:50:00,48.9,35.3,30.10,North,4,0.0,0.0,59,0.00,,,0.01,Custom v0.1,2013-05-12 02:50:00,
2013-05-11 21:55:00,48.6,35.8,30.10,North,4,0.0,0.0,61,0.00,,,0.01,Custom v0.1,2013-05-12 02:55:00,
2013-05-11 22:00:00,48.2,35.5,30.10,North,4,0.0,0.0,61,0.00,,,0.01,Custom v0.1,2013-05-12 03:00:00,
2013-05-11 22:10:00,47.4,33.4,30.11,North,4,0.0,0.0,58,0.00,,,0.01,Custom v0.1,2013-05-12 03:10:00,
2013-05-11 22:15:00,47.1,34.8,30.11,North,4,0.0,0.0,62,0.00,,,0.01,Custom v0.1,2013-05-12 03:15:00,
2013-05-11 22:20:00,46.8,34.6,30.12,North,4,0.0,0.0,62,0.00,,,0.01,Custom v0.1,2013-05-12 03:20:00,
2013-05-11 22:25:00,46.5,35.1,30.12,North,4,0.0,0.0,64,0.00,,,0.01,Custom v0.1,2013-05-12 03:25:00,
2013-05-11 22:30:00,46.2,34.4,30.12,North,4,0.0,0.0,63,0.00,,,0.01,Custom v0.1,2013-05-12 03:30:00,
2013-05-11 22:40:00,45.7,35.1,30.12,North,4,0.0,0.0,66,0.00,,,0.01,Custom v0.1,2013-05-12 03:40:00,
2013-05-11 22:45:00,45.4,34.8,30.12,North,4,0.0,0.0,66,0.00,,,0.01,Custom v0.1,2013-05-12 03:45:00,
2013-05-11 22:50:00,45.1,35.6,30.13,North,4,0.0,0.0,69,0.00,,,0.01,Custom v0.1,2013-05-12 03:50:00,
2013-05-11 22:55:00,44.8,37.4,30.13,North,4,0.0,0.0,75,0.00,,,0.01,Custom v0.1,2013-05-12 03:55:00,
2013-05-11 23:00:00,44.5,37.8,30.13,North,4,0.0,0.0,77,0.00,,,0.01,Custom v0.1,2013-05-12 04:00:00,
2013-05-11 23:05:00,44.1,38.0,30.13,North,4,0.0,0.0,79,0.00,,,0.01,Custom v0.1,2013-05-12 04:05:00,
2013-05-11 23:10:00,43.6,37.5,30.13,North,4,0.0,0.0,79,0.00,,,0.01,Custom v0.1,2013-05-12 04:10:00,
2013-05-11 23:15:00,43.3,37.6,30.13,North,4,0.0,0.0,80,0.00,,,0.01,Custom v0.1,2013-05-12 04:15:00,
2013-05-11 23:25:00,43.1,36.7,30.12,North,4,0.0,0.0,78,0.00,,,0.01,Custom v0.1,2013-05-12 04:25:00,
2013-05-11 23:35:00,42.6,36.3,30.13,North,4,0.0,0.0,78,0.00,,,0.01,Custom v0.1,2013-05-12 04:35:00,
2013-05-11 23:40:00,42.6,36.9,30.13,North,4,0.0,0.0,80,0.00,,,0.01,Custom v0.1,2013-05-12 04:40:00,
2013-05-11 23:45:00,42.5,36.5,30.13,North,4,0.0,0.0,79,0.00,,,0.01,Custom v0.1,2013-05-12 04:45:00,
2013-05-11 23:50:00,42.2,35.9,30.13,North,4,0.0,0.0,78,0.00,,,0.01,Custom v0.1,2013-05-12 04:50:00,
2013-05-11 23:55:00,41.9,35.9,30.13,North,4,0.0,0.0,79,0.00,,,0.01,Custom v0.1,2013-05-12 04:55:00,